Regional Weather Roundup
Issued by NWS Green Bay, WI

Home | Current Version | Previous Version | Graphics & Text | Print | Product List | Glossary Off
Versions: 1 2 3 4 5 6 7 8 9 10 11 12 13 14 15 16 17 18 19 20 21 22 23 24 25 26 27 28 29 30 31 32 33 34 35 36 37 38 39 40 41 42 43 44 45 46 47 48 49 50

000
ASUS43 KGRB 272359
RWRGRB

NORTH-CENTRAL AND NORTHEAST WISCONSIN REGIONAL WEATHER ROUNDUP
NATIONAL WEATHER SERVICE GREEN BAY WI
700 PM CDT MON APR 27 2015

WIZ005-009-010>012-018-019-280100-
NORTH CENTRAL WISCONSIN

CITY           SKY/WX    TMP DP  RH WIND       PRES   REMARKS
IRONWOOD       CLEAR     57  28  33 NE6       30.13F
MANITOWISH WTR NOT AVBL
ARBOR VITAE    NOT AVBL
EAGLE RIVER    NOT AVBL
LAND O LAKES   NOT AVBL
RHINELANDER    CLEAR     58  26  29 N7        30.14R
PHILLIPS       CLEAR     59  29  31 NE12      30.14S
ANTIGO         NOT AVBL
TOMAHAWK       NOT AVBL
MERRILL        NOT AVBL
$$

WIZ013-073-280100-
NORTHEAST WISCONSIN

CITY           SKY/WX    TMP DP  RH WIND       PRES   REMARKS
IRON MOUNTAIN  CLEAR     60  27  28 N10       30.09S
MARINETTE      CLEAR     48  34  57 E8        30.12R
$$

WIZ017-030-035>037-045-280100-
CENTRAL WISCONSIN

CITY           SKY/WX    TMP DP  RH WIND       PRES   REMARKS
MEDFORD        NOT AVBL
WAUSAU         CLEAR     64  26  23 N8        30.08R
MOSINEE        NOT AVBL
MARSHFIELD     CLEAR     65  29  25 N13       30.10R
WISC RAPIDS    CLEAR     66  26  22 N12       30.09S
STEVENS POINT  NOT AVBL
WAUPACA        CLEAR     68  26  21 NE8G16    30.07R
SHAWANO        CLEAR     60  36  39 E9        30.09S
CLINTONVILLE   CLEAR     63  32  31 E7        30.08R
$$

WIZ038-039-048-051-280100-
FOX VALLEY

CITY           SKY/WX    TMP DP  RH WIND       PRES   REMARKS
NWS GREEN BAY  CLEAR     55  38  52 E13       30.11R
APPLETON       CLEAR     63  30  29 NE7       30.09R
OSHKOSH        CLEAR     57  38  48 SE12      30.08S
FOND DU LAC    CLEAR     57  38  48 SE13      30.08S
$$

WIZ022-050-052-280100-
EAST CENTRAL WISCONSIN

CITY           SKY/WX    TMP DP  RH WIND       PRES   REMARKS
STURGEON BAY   CLEAR     46  30  53 E6        30.14S
MANITOWOC      NOT AVBL
SHEBOYGAN      CLEAR     47  33  58 E9        30.12S
$$

LMZ563-521-522-541>543-280100-
LAKESHORE

STATION/POSITION TIME  TEMP    WIND        PRES    VSBY  WAVE
                       AIR SEA DIR/SP/G                  HT/PER
                 (UTC) (F)     (DEG/KT/KT) (MB)    (MI)  (FT/S)
SHEBOYGAN LKSHOR 2300   43      40/  3/  4 1020.9S
KEWAUNEE LKSHORE 2300   44      CALM  /  3 1019.4R
NORTHPORT PIER   2300   45     130/  4/  6 1019.6S
CHAMBERS ISLAND  2300   48      60/ 11/ 15 1019.6R
MENOMINEE LKSHOR 2300   46      30/  3/  4 1020.5R
$$


USA.gov is the U.S. government's official web portal to all federal, state and local government web resources and services.